• In Deutschland
  • Länderverzeichnis
  • Für 7 Tage
  • Wassertemperatur
  • Satellitenkarten
  • Wetterkarte
  • Widgets
  • user-avatar
    Anmelden

    Stündliche Wetter Darwin

    Heute, 23 April, Sonntag

    Zeit Temperatur Niederschläge Wind Luftdruck Luftfeuchtigkeit
    00:00 +28°C° 0,2 mm 1 m/S 758 mmHg 87%
    01:00 +27°C° 0,1 mm 1 m/S 758 mmHg 86%
    02:00 +27°C° 0,1 mm 1 m/S 758 mmHg 85%
    03:00 +27°C° 0 mm 2 m/S 757 mmHg 82%
    04:00 +26°C° 0 mm 2 m/S 757 mmHg 82%
    05:00 +26°C° 0 mm 2 m/S 758 mmHg 83%
    06:00 +26°C° 0 mm 3 m/S 758 mmHg 84%
    07:00 +27°C° 0 mm 3 m/S 758 mmHg 79%
    08:00 +29°C° 0 mm 3 m/S 758 mmHg 75%
    09:00 +30°C° 0 mm 3 m/S 758 mmHg 70%
    10:00 +33°C° 0 mm 3 m/S 758 mmHg 62%
    11:00 +34°C° 0 mm 3 m/S 758 mmHg 54%
    12:00 +36°C° 0 mm 3 m/S 758 mmHg 46%
    13:00 +36°C° 0 mm 3 m/S 757 mmHg 46%
    14:00 +36°C° 0 mm 3 m/S 757 mmHg 45%
    15:00 +37°C° 0 mm 3 m/S 757 mmHg 45%
    16:00 +35°C° 0 mm 2 m/S 757 mmHg 53%
    17:00 +32°C° 0 mm 2 m/S 757 mmHg 60%
    18:00 +31°C° 0 mm 2 m/S 757 mmHg 68%
    19:00 +30°C° 0 mm 2 m/S 757 mmHg 71%
    20:00 +29°C° 0 mm 1 m/S 757 mmHg 73%
    21:00 +28°C° 0 mm 1 m/S 758 mmHg 76%
    22:00 +28°C° 0 mm 1 m/S 758 mmHg 76%
    23:00 +28°C° 0 mm 1 m/S 758 mmHg 76%

    Morgen, 24 April, Montag

    Zeit Temperatur Niederschläge Wind Luftdruck Luftfeuchtigkeit
    00:00 +28°C° 0 mm 1 m/S 758 mmHg 76%
    01:00 +28°C° 0 mm 2 m/S 758 mmHg 76%
    02:00 +27°C° 0 mm 2 m/S 758 mmHg 76%
    03:00 +27°C° 0 mm 2 m/S 757 mmHg 76%
    04:00 +27°C° 0 mm 2 m/S 757 mmHg 78%
    05:00 +26°C° 0 mm 2 m/S 758 mmHg 80%
    06:00 +26°C° 0 mm 2 m/S 758 mmHg 82%
    07:00 +27°C° 0 mm 2 m/S 758 mmHg 77%
    08:00 +28°C° 0 mm 3 m/S 758 mmHg 72%
    09:00 +30°C° 0 mm 3 m/S 758 mmHg 67%
    10:00 +31°C° 0 mm 3 m/S 758 mmHg 60%
    11:00 +34°C° 0 mm 4 m/S 758 mmHg 54%
    12:00 +36°C° 0 mm 4 m/S 757 mmHg 47%
    13:00 +36°C° 0 mm 3 m/S 757 mmHg 46%
    14:00 +37°C° 0 mm 3 m/S 756 mmHg 44%
    15:00 +37°C° 0 mm 2 m/S 755 mmHg 43%
    16:00 +35°C° 0 mm 2 m/S 756 mmHg 50%
    17:00 +34°C° 0 mm 2 m/S 756 mmHg 57%
    18:00 +31°C° 0 mm 2 m/S 756 mmHg 64%
    19:00 +30°C° 0 mm 2 m/S 756 mmHg 66%
    20:00 +29°C° 0 mm 2 m/S 757 mmHg 68%
    21:00 +29°C° 0 mm 1 m/S 758 mmHg 70%
    22:00 +28°C° 0 mm 2 m/S 758 mmHg 70%
    23:00 +28°C° 0 mm 2 m/S 758 mmHg 70%

    übermorgen, 25 April, Dienstag

    Zeit Temperatur Niederschläge Wind Luftdruck Luftfeuchtigkeit
    00:00 +28°C° 0 mm 2 m/S 758 mmHg 70%
    01:00 +28°C° 0 mm 2 m/S 757 mmHg 72%
    02:00 +28°C° 0 mm 2 m/S 757 mmHg 73%
    03:00 +27°C° 0 mm 2 m/S 756 mmHg 75%
    04:00 +27°C° 0 mm 2 m/S 757 mmHg 77%
    05:00 +26°C° 0 mm 2 m/S 757 mmHg 79%
    06:00 +26°C° 0 mm 2 m/S 757 mmHg 81%
    07:00 +27°C° 0 mm 3 m/S 757 mmHg 75%
    08:00 +29°C° 0 mm 3 m/S 758 mmHg 69%
    09:00 +30°C° 0 mm 3 m/S 758 mmHg 64%
    10:00 +33°C° 0 mm 3 m/S 758 mmHg 57%
    11:00 +35°C° 0 mm 3 m/S 757 mmHg 51%
    12:00 +36°C° 0 mm 4 m/S 757 mmHg 44%
    13:00 +37°C° 0 mm 3 m/S 756 mmHg 43%
    14:00 +37°C° 0 mm 3 m/S 755 mmHg 42%
    15:00 +37°C° 0 mm 2 m/S 755 mmHg 41%
    16:00 +35°C° 0 mm 2 m/S 755 mmHg 49%
    17:00 +32°C° 0 mm 2 m/S 755 mmHg 58%
    18:00 +31°C° 0 mm 3 m/S 755 mmHg 67%
    19:00 +30°C° 0 mm 3 m/S 756 mmHg 67%
    20:00 +30°C° 0 mm 3 m/S 756 mmHg 67%
    21:00 +29°C° 0 mm 3 m/S 757 mmHg 67%
    22:00 +29°C° 0,1 mm 3 m/S 757 mmHg 68%
    23:00 +29°C° 0,1 mm 3 m/S 757 mmHg 70%

    26 April, Mittwoch

    Zeit Temperatur Niederschläge Wind Luftdruck Luftfeuchtigkeit
    00:00 +28°C° 0,1 mm 2 m/S 757 mmHg 71%
    01:00 +28°C° 0,1 mm 2 m/S 756 mmHg 74%
    02:00 +28°C° 0,1 mm 3 m/S 756 mmHg 78%
    03:00 +27°C° 0,1 mm 3 m/S 756 mmHg 81%
    04:00 +27°C° 0 mm 3 m/S 756 mmHg 82%
    05:00 +27°C° 0 mm 3 m/S 756 mmHg 82%
    06:00 +26°C° 0 mm 3 m/S 756 mmHg 83%
    07:00 +27°C° 0 mm 3 m/S 757 mmHg 76%
    08:00 +29°C° 0 mm 3 m/S 757 mmHg 70%
    09:00 +30°C° 0 mm 4 m/S 758 mmHg 63%
    10:00 +32°C° 0 mm 4 m/S 757 mmHg 59%
    11:00 +33°C° 0 mm 4 m/S 757 mmHg 54%
    12:00 +34°C° 0 mm 4 m/S 756 mmHg 50%
    13:00 +34°C° 0 mm 4 m/S 756 mmHg 51%
    14:00 +33°C° 0 mm 4 m/S 755 mmHg 52%
    15:00 +32°C° 0 mm 4 m/S 754 mmHg 54%
    16:00 +30°C° 0 mm 4 m/S 755 mmHg 58%
    17:00 +28°C° 0 mm 5 m/S 755 mmHg 63%
    18:00 +27°C° 0 mm 5 m/S 755 mmHg 68%
    19:00 +27°C° 0,1 mm 5 m/S 756 mmHg 71%
    20:00 +26°C° 0,1 mm 5 m/S 757 mmHg 73%
    21:00 +26°C° 0,1 mm 4 m/S 757 mmHg 76%
    22:00 +26°C° 0,1 mm 4 m/S 757 mmHg 76%
    23:00 +26°C° 0,1 mm 3 m/S 757 mmHg 77%

    27 April, Donnerstag

    Zeit Temperatur Niederschläge Wind Luftdruck Luftfeuchtigkeit
    00:00 +26°C° 0,1 mm 3 m/S 757 mmHg 77%
    01:00 +26°C° 0 mm 3 m/S 756 mmHg 76%
    02:00 +26°C° 0 mm 4 m/S 756 mmHg 76%
    03:00 +27°C° 0 mm 4 m/S 755 mmHg 75%
    04:00 +27°C° 0 mm 4 m/S 756 mmHg 75%
    05:00 +27°C° 0 mm 4 m/S 756 mmHg 75%
    06:00 +27°C° 0 mm 4 m/S 756 mmHg 75%
    07:00 +28°C° 0 mm 4 m/S 756 mmHg 69%
    08:00 +30°C° 0 mm 4 m/S 757 mmHg 63%
    09:00 +32°C° 0 mm 4 m/S 757 mmHg 57%
    10:00 +33°C° 0 mm 4 m/S 757 mmHg 55%
    11:00 +34°C° 0 mm 4 m/S 757 mmHg 53%
    12:00 +34°C° 0 mm 4 m/S 756 mmHg 51%
    13:00 +33°C° 0 mm 4 m/S 756 mmHg 56%
    14:00 +32°C° 0 mm 4 m/S 755 mmHg 61%
    15:00 +30°C° 0 mm 4 m/S 755 mmHg 66%
    16:00 +29°C° 0 mm 4 m/S 755 mmHg 69%
    17:00 +28°C° 0 mm 4 m/S 756 mmHg 71%
    18:00 +28°C° 0 mm 4 m/S 756 mmHg 74%
    19:00 +27°C° 0 mm 4 m/S 756 mmHg 75%
    20:00 +26°C° 0 mm 4 m/S 757 mmHg 76%
    21:00 +26°C° 0 mm 3 m/S 757 mmHg 77%
    22:00 +26°C° 0 mm 3 m/S 757 mmHg 78%
    23:00 +25°C° 0 mm 3 m/S 757 mmHg 78%

    28 April, Freitag

    Zeit Temperatur Niederschläge Wind Luftdruck Luftfeuchtigkeit
    00:00 +25°C° 0 mm 2 m/S 757 mmHg 79%
    01:00 +25°C° 0 mm 2 m/S 757 mmHg 80%
    02:00 +25°C° 0 mm 2 m/S 756 mmHg 81%
    03:00 +24°C° 0 mm 2 m/S 756 mmHg 82%
    04:00 +24°C° 0 mm 1 m/S 757 mmHg 82%
    05:00 +24°C° 0 mm 1 m/S 757 mmHg 82%
    06:00 +24°C° 0 mm 1 m/S 757 mmHg 82%
    07:00 +25°C° 0 mm 1 m/S 758 mmHg 79%
    08:00 +27°C° 0 mm 2 m/S 758 mmHg 75%
    09:00 +28°C° 0 mm 2 m/S 759 mmHg 72%
    10:00 +29°C° 0 mm 2 m/S 758 mmHg 69%
    11:00 +30°C° 0 mm 3 m/S 758 mmHg 66%
    12:00 +33°C° 0 mm 3 m/S 757 mmHg 63%
    13:00 +33°C° 0 mm 3 m/S 757 mmHg 63%
    14:00 +33°C° 0 mm 3 m/S 757 mmHg 62%
    15:00 +33°C° 0 mm 3 m/S 756 mmHg 62%
    16:00 +31°C° 0,1 mm 3 m/S 757 mmHg 68%
    17:00 +30°C° 0,1 mm 3 m/S 757 mmHg 74%
    18:00 +28°C° 0,1 mm 2 m/S 758 mmHg 80%
    19:00 +28°C° 0,1 mm 3 m/S 758 mmHg 81%
    20:00 +28°C° 0,1 mm 3 m/S 759 mmHg 83%
    21:00 +27°C° 0,1 mm 3 m/S 760 mmHg 85%
    22:00 +27°C° 0 mm 3 m/S 759 mmHg 86%
    23:00 +27°C° 0 mm 3 m/S 759 mmHg 87%
    Mehr zeigen